Regional Weather Roundup
Issued by NWS

Home | Current Version | Previous Version | Text Only | Print | Product List | Glossary On
Versions: 1 2 3 4 5 6 7 8 9 10 11 12 13 14 15 16 17 18 19 20 21 22 23 24 25 26 27 28 29 30 31 32 33 34 35 36 37 38 39 40 41 42 43 44 45 46 47 48 49 50
000
ASUS45 KREV 070010
RWRNV
NEVADA REGIONAL WEATHER ROUNDUP
NATIONAL WEATHER SERVICE RENO NV
400 PM PST SAT FEB 06 2016

NOTE: "FAIR" INDICATES FEW OR NO CLOUDS BELOW 12,000 FEET WITH NO
SIGNIFICANT WEATHER AND/OR OBSTRUCTIONS TO VISIBILITY.

NVZ001-003-004-070100-
WESTERN NEVADA

CITY           SKY/WX    TMP DP  RH WIND       PRES   REMARKS
RENO           PTSUNNY   52  27  38 S3        30.40F
6HR MIN TEMP:  39; 6HR MAX TEMP:  52;

CARSON CITY    FAIR      48  32  53 E12       30.41S
MINDEN         FAIR      50  32  50 N6        30.41S
SLIDE MTN        N/A     37  19  48 W2          N/A
PYRAMID LAKE     N/A     43 N/A N/A N3          N/A
FALLON         PTSUNNY   44  29  55 CALM      30.43S
6HR MIN TEMP:  33; 6HR MAX TEMP:  45;

LOVELOCK       SUNNY     49  31  49 CALM      30.42F
6HR MIN TEMP:  35; 6HR MAX TEMP:  50;

HAWTHORNE      SUNNY     43  32  65 NW3       30.45R
$$

NVZ002-CAZ072-073-070100-
NORTHERN AND CENTRAL SIERRA

CITY           SKY/WX    TMP DP  RH WIND       PRES   REMARKS
S. LAKE TAHOE  SUNNY     45  27  49 N6        30.41R
6HR MIN TEMP:  34; 6HR MAX TEMP:  48;

TRUCKEE        MOSUNNY   48  19  32 N5        30.41S
                   6HR MAX TEMP:  50;

SQUAW VLY 8000   N/A     39  25  56 NW5         N/A
SUSANVILLE     SUNNY     48  34  57 S6        30.42S
BLUE CANYON    SUNNY     53  25  33 VRB3      30.40F
MAMMOTH LAKES  FAIR      46  18  31 CALM      30.41S
BRIDGEPORT     FAIR      50  20  30 SE7       30.38R
$$

NVZ030-031-036-070100-
NORTHERN NEVADA

CITY           SKY/WX    TMP DP  RH WIND       PRES   REMARKS
ELKO           SUNNY     27  16  63 CALM      30.46R
6HR MIN TEMP:  16; 6HR MAX TEMP:  29;

WINNEMUCCA     SUNNY     42  28  57 NE8       30.42F
6HR MIN TEMP:  33; 6HR MAX TEMP:  44;

WENDOVER       PTCLDY    36  25  64 CALM      30.45F
$$

NVZ035-037-070100-
CENTRAL NEVADA

CITY           SKY/WX    TMP DP  RH WIND       PRES   REMARKS
ELY            SUNNY     32  22  66 NE3       30.41S
6HR MIN TEMP:  18; 6HR MAX TEMP:  37;

EUREKA           N/A      1  52 100 N3        30.43R
6HR MIN TEMP:   1; 6HR MAX TEMP:   1;

$$

NVZ013-014-070100-
SOUTH CENTRAL NEVADA

CITY           SKY/WX    TMP DP  RH WIND       PRES   REMARKS
TONOPAH        SUNNY     34  23  64 CALM      30.41F
6HR MIN TEMP:  19; 6HR MAX TEMP:  35;

$$

NVZ017-020-022-070100-
SOUTHERN NEVADA

CITY           SKY/WX    TMP DP  RH WIND       PRES   REMARKS
LAS VEGAS      MOSUNNY   61  22  22 CALM      30.29F
6HR MIN TEMP:  50; 6HR MAX TEMP:  61;

N. LAS VEGAS   SUNNY     60  23  24 SE3       30.33S
6HR MIN TEMP:  50; 6HR MAX TEMP:  61;

NELLIS AFB     SUNNY     60  27  28 CALM      30.32F
6HR MIN TEMP:  50; 6HR MAX TEMP:  62;

HENDERSON      SUNNY     59  23  25 CALM      30.35F
6HR MIN TEMP:  49; 6HR MAX TEMP:  59;

MERCURY        SUNNY     60  23  24 N13       30.34S
6HR MIN TEMP:  48; 6HR MAX TEMP:  61;

$$



USA.gov is the U.S. government's official web portal to all federal, state and local government web resources and services.